History for Miami, FL

Saturday, November 3, 2012 — View Current Conditions

Jump to Data:

Date:
Airport Code:
Recently Viewed Airport Codes: KMIA
Daily Summary
  Actual Average Record
Temperature
Mean Temperature 71°F 77°F  
Max Temperature 83°F 84°F 89°F (2009)
Min Temperature 59°F 70°F 54°F (1912)
Degree Days
Heating Degree Days 0 0  
Month to date heating degree days 0 0  
Since 1 July heating degree days 0 0  
Cooling Degree Days 6 12  
Month to date cooling degree days 18 36  
Year to date cooling degree days 4257 4108  
Growing Degree Days 20 (Base 50)    
Moisture
Dew Point 51°F    
Average Humidity 55    
Maximum Humidity 84    
Minimum Humidity 26    
Precipitation
Precipitation 0.00 in 0.14 in 1.70 in (1932)
Month to date precipitation 0.00 0.42  
Year to date precipitation 85.93 57.01  
Snow
Snow 0.00 in in in ()
Month to date snowfall 0.0  
Since 1 July snowfall 0.0  
Since 1 September snowfall 0.0  
Snow Depth 0.00 in    
Sea Level Pressure
Sea Level Pressure 30.10 in    
Wind
Wind Speed 3 mph (ENE)    
Max Wind Speed 12 mph    
Max Gust Speed 16 mph    
Visibility 10 miles    
Events      
T = Trace of Precipitation, MM = Missing Value Source: NWS Daily Summary

Show full METARS

(help) - Comma Delimited File

Hourly Observations

Time(EDT) Temperature Dew Point Humidity Sea Level Pressure Visibility Wind Direction Wind Speed Gust Speed Precipitation Events Conditions
12:53 AM 64.9°F 48.9°F 56% 30.09 in 10.0 miles Calm Calm - N/A   Clear
1:53 AM 63.0°F 50.0°F 63% 30.08 in 10.0 miles Calm Calm - N/A   Clear
2:53 AM 62.1°F 50.0°F 65% 30.07 in 10.0 miles Calm Calm - N/A   Clear
3:53 AM 62.1°F 51.1°F 67% 30.06 in 10.0 miles Calm Calm - N/A   Clear
4:53 AM 62.1°F 53.1°F 72% 30.06 in 10.0 miles Calm Calm - N/A   Clear
5:53 AM 62.1°F 55.0°F 78% 30.09 in 10.0 miles Calm Calm - N/A   Clear
6:53 AM 63.0°F 57.0°F 81% 30.10 in 10.0 miles NNW 4.6 mph - N/A   Clear
7:53 AM 63.0°F 54.0°F 72% 30.12 in 10.0 miles Calm Calm - N/A   Partly Cloudy
8:53 AM 68.0°F 54.0°F 61% 30.14 in 10.0 miles North 4.6 mph - N/A   Partly Cloudy
9:53 AM 72.0°F 51.1°F 48% 30.14 in 10.0 miles North 6.9 mph - N/A   Partly Cloudy
10:53 AM 75.9°F 51.1°F 42% 30.15 in 10.0 miles Variable 4.6 mph - N/A   Partly Cloudy
11:53 AM 78.1°F 48.9°F 36% 30.14 in 10.0 miles NE 8.1 mph - N/A   Partly Cloudy
12:53 PM 80.1°F 50.0°F 35% 30.12 in 10.0 miles Variable 5.8 mph - N/A   Partly Cloudy
1:53 PM 81.0°F 46.9°F 30% 30.10 in 10.0 miles Variable 3.5 mph - N/A   Partly Cloudy
2:53 PM 82.9°F 45.0°F 26% 30.08 in 10.0 miles Calm Calm - N/A   Partly Cloudy
3:53 PM 81.0°F 52.0°F 36% 30.07 in 10.0 miles Variable 5.8 mph - N/A   Scattered Clouds
4:53 PM 80.1°F 51.1°F 36% 30.06 in 10.0 miles SSE 6.9 mph - N/A   Partly Cloudy
5:53 PM 78.1°F 51.1°F 39% 30.07 in 10.0 miles SE 8.1 mph - N/A   Partly Cloudy
6:53 PM 75.9°F 52.0°F 43% 30.09 in 10.0 miles ESE 4.6 mph - N/A   Partly Cloudy
7:53 PM 75.0°F 50.0°F 41% 30.09 in 10.0 miles East 3.5 mph - N/A   Clear
8:53 PM 73.0°F 51.1°F 46% 30.10 in 10.0 miles Calm Calm - N/A   Clear
9:53 PM 70.0°F 53.1°F 55% 30.11 in 10.0 miles Calm Calm - N/A   Clear
10:53 PM 70.0°F 53.1°F 55% 30.12 in 10.0 miles Calm Calm - N/A   Clear
11:53 PM 69.1°F 55.0°F 61% 30.12 in 10.0 miles Calm Calm - N/A   Clear